Weather reports worldwide

Advertisment
Manresa, Spain (8174): temperature & dewpoint: 07.12.2019 05:00:00 - 13.12.2019 05:00:00 (CET)Manresa, Spain (8174): wind speed & gusts: 07.12.2019 05:00:00 - 13.12.2019 05:00:00 (CET)Manresa, Spain (8174): wind direction: 07.12.2019 05:00:00 - 13.12.2019 05:00:00 (CET)Manresa, Spain (8174): reduced air pressure: 07.12.2019 05:00:00 - 13.12.2019 05:00:00 (CET)Manresa, Spain (8174): visibility: 07.12.2019 05:00:00 - 13.12.2019 05:00:00 (CET)Manresa, Spain (8174): sunshine duration: 07.12.2019 05:00:00 - 13.12.2019 05:00:00 (CET)Manresa, Spain (8174): precipitation: 07.12.2019 05:00:00 - 13.12.2019 05:00:00 (CET)
Date & Time tt [°C] td [°C] ff [km/h] ff [kn] fx [km/h] fx [kn] dd ppp [hPa] vv [km] sd [min] rr [mm]
13.12.2019 05:00:00 9,5 5,8 7 4 22 12 NNW 1002,2 20 0 0,0
13.12.2019 04:00:00 9,4 5,8 5 3 24 13 WNW 1002,7 20 0 0,0
13.12.2019 03:00:00 9,4 5,8 12 6 29 16 WNW 1003,3 20 0 0,0
13.12.2019 02:00:00 8,9 5,5 7 4 20 11 W 1003,4 20 0 0,0
13.12.2019 01:00:00 8,8 5,3 9 5 37 20 WNW 1004,2 20 0 -
13.12.2019 00:00:00 8,7 5,3 15 8 31 17 WNW 1004,7 20 0 0,0
12.12.2019 23:00:00 8,8 4,6 20 11 40 21 WNW 1005,2 20 0 0,0
12.12.2019 22:00:00 8,9 4,6 18 10 39 21 WNW 1005,4 20 0 0,0
12.12.2019 21:00:00 8,9 4,3 20 11 36 20 W 1005,8 20 0 0,0
12.12.2019 20:00:00 8,6 3,8 11 6 39 21 W 1007,0 20 0 0,0
12.12.2019 19:00:00 9,1 4,5 12 7 36 19 W 1007,4 20 0 -
12.12.2019 18:00:00 9,5 3,6 13 7 34 19 W 1008,0 20 0 0,0
12.12.2019 17:00:00 9,9 3,4 15 8 36 20 W 1008,8 20 0 0,0
12.12.2019 16:00:00 10,4 3,2 14 7 29 16 W 1009,9 20 7 0,0
12.12.2019 15:00:00 10,3 3,6 13 7 27 15 WNW 1010,6 20 0 0,0
12.12.2019 14:00:00 10,0 3,2 14 7 33 18 W 1012,0 20 22 0,0
12.12.2019 13:00:00 8,6 3,6 5 3 14 7 WNW 1013,4 20 47 -
12.12.2019 12:00:00 6,6 2,9 10 5 19 10 ENE 1015,1 20 60 0,0
12.12.2019 11:00:00 4,9 1,9 8 4 18 10 NE 1016,2 20 60 0,0
12.12.2019 10:00:00 1,8 0,0 12 6 20 11 ENE 1017,1 20 18 0,0
12.12.2019 09:00:00 0,8 -0,5 3 2 18 10 N 1017,4 16 0 0,0
12.12.2019 08:00:00 0,8 -0,5 9 5 14 8 NE 1017,3 11 0 0,0
12.12.2019 07:00:00 0,9 -0,5 3 1 12 6 ENE 1017,2 16 0 -
12.12.2019 06:00:00 0,8 -0,5 3 2 11 6 ENE 1016,5 12 0 0,0
12.12.2019 05:00:00 1,6 0,2 4 2 16 9 ENE 1017,1 17 0 0,0
12.12.2019 04:00:00 2,9 0,6 4 2 7 4 NNE 1017,1 20 0 0,0
12.12.2019 03:00:00 3,5 0,9 3 1 13 7 NNE 1017,4 20 0 0,0
12.12.2019 02:00:00 3,3 0,4 6 3 22 12 NNE 1017,0 18 0 0,0
12.12.2019 01:00:00 5,2 0,9 5 3 10 5 NNW 1017,4 20 0 -
12.12.2019 00:00:00 4,4 1,7 4 2 10 5 NNW 1017,9 17 0 0,0
11.12.2019 23:00:00 4,3 2,3 3 1 10 5 E 1018,1 13 0 0,0
11.12.2019 22:00:00 5,0 3,2 5 3 13 7 N 1018,2 8 0 0,0
11.12.2019 21:00:00 7,3 2,9 11 6 20 11 WNW 1017,7 20 0 0,0
11.12.2019 20:00:00 6,9 4,1 3 2 8 5 SW 1017,8 12 0 0,0
11.12.2019 19:00:00 8,2 4,8 5 3 13 7 E 1017,2 14 0 -
11.12.2019 18:00:00 8,6 4,6 9 5 29 16 ENE 1016,2 14 0 0,0
11.12.2019 17:00:00 8,9 4,6 14 8 34 18 W 1015,3 20 3 0,0
11.12.2019 16:00:00 8,7 3,8 13 7 24 13 W 1014,9 20 0 0,0
11.12.2019 15:00:00 9,6 2,7 14 8 35 19 WNW 1014,9 20 0 0,0
11.12.2019 14:00:00 9,7 3,2 5 3 14 8 NNW 1015,5 20 6 0,0
11.12.2019 13:00:00 7,6 2,9 5 3 9 5 N 1016,6 18 18 -
11.12.2019 12:00:00 6,2 2,3 3 2 9 5 NNE 1018,0 20 58 0,0
11.12.2019 11:00:00 3,7 1,1 4 2 9 5 NNE 1019,4 20 39 0,0
11.12.2019 10:00:00 2,0 0,4 4 2 6 3 NE 1020,4 10 11 0,0
11.12.2019 09:00:00 0,6 -0,5 4 2 7 4 NE 1020,6 11 0 0,0
11.12.2019 08:00:00 0,5 -0,7 2 1 8 4 NE 1021,0 12 0 0,0
11.12.2019 07:00:00 0,8 -0,3 3 2 6 4 NNE 1021,4 13 0 -
11.12.2019 06:00:00 0,6 -0,3 3 2 6 3 N 1022,1 9 0 0,0
11.12.2019 05:00:00 0,8 0,0 4 2 7 4 NE 1022,7 11 0 0,0
11.12.2019 04:00:00 1,0 0,0 1 1 6 3 NE 1023,3 10 0 0,0
11.12.2019 03:00:00 1,5 0,4 6 3 10 5 NE 1023,7 16 0 0,0
11.12.2019 02:00:00 1,7 0,4 3 2 9 5 N 1024,0 11 0 0,0
11.12.2019 01:00:00 2,2 0,9 5 3 8 4 NE 1024,4 16 0 -
11.12.2019 00:00:00 2,6 1,1 2 1 12 7 NNE 1024,7 12 0 0,0
10.12.2019 23:00:00 3,5 1,9 6 3 12 6 NE 1024,4 14 0 0,0
10.12.2019 22:00:00 4,3 2,3 2 1 12 7 N 1024,2 17 0 0,0
10.12.2019 21:00:00 5,1 2,9 6 4 12 6 ENE 1024,4 19 0 0,0
10.12.2019 20:00:00 6,0 3,2 7 4 13 7 NE 1024,0 17 0 0,0
10.12.2019 19:00:00 7,1 3,6 7 4 13 7 E 1024,0 20 0 -
10.12.2019 18:00:00 8,2 3,8 9 5 14 7 ENE 1023,8 20 0 0,0
10.12.2019 17:00:00 9,4 3,9 9 5 16 9 ENE 1023,7 20 24 0,0
10.12.2019 16:00:00 10,2 3,9 5 3 13 7 W 1023,7 20 0 0,0
10.12.2019 15:00:00 10,4 3,6 5 3 16 9 NW 1023,9 20 28 0,0
10.12.2019 14:00:00 10,3 3,6 8 4 14 8 NE 1024,2 20 12 0,0
10.12.2019 13:00:00 9,4 2,9 4 2 15 8 NE 1024,8 20 2 -
10.12.2019 12:00:00 7,7 2,1 6 4 12 7 ENE 1025,5 20 18 0,0
10.12.2019 11:00:00 5,5 1,1 4 2 11 6 NNE 1026,0 20 56 0,0
10.12.2019 10:00:00 3,4 0,0 7 4 13 7 ENE 1025,9 20 27 0,0
10.12.2019 09:00:00 2,0 -0,5 6 3 14 8 NE 1026,1 20 0 0,0
10.12.2019 08:00:00 2,4 -0,5 7 4 13 7 E 1025,5 20 0 0,0
10.12.2019 07:00:00 4,2 0,4 4 2 20 11 W 1024,5 20 0 -
10.12.2019 06:00:00 6,6 0,6 8 4 17 9 WNW 1023,5 20 0 0,0
10.12.2019 05:00:00 6,9 0,9 11 6 24 13 W 1023,1 20 0 0,0
10.12.2019 04:00:00 7,3 1,1 7 4 29 16 W 1022,9 20 0 0,0
10.12.2019 03:00:00 7,7 1,5 13 7 29 16 W 1022,7 20 0 0,0
10.12.2019 02:00:00 7,8 1,7 12 7 35 19 W 1022,9 20 0 0,0
10.12.2019 01:00:00 8,2 0,9 12 7 31 17 W 1023,0 20 0 -
10.12.2019 00:00:00 8,3 1,7 18 10 32 18 W 1023,4 20 0 0,0
09.12.2019 23:00:00 8,8 1,3 8 5 19 11 WSW 1022,8 20 0 0,0
09.12.2019 22:00:00 8,8 2,1 5 3 11 6 WSW 1022,8 20 0 0,0
09.12.2019 21:00:00 8,7 3,0 4 2 23 12 S 1022,5 20 0 0,0
09.12.2019 20:00:00 9,6 3,8 8 4 27 15 W 1022,3 20 0 0,0
09.12.2019 19:00:00 10,6 4,1 13 7 39 21 WNW 1021,8 20 0 -
09.12.2019 18:00:00 12,0 4,5 24 13 43 23 WNW 1020,5 20 1 0,0
09.12.2019 17:00:00 13,2 5,1 25 14 49 27 WNW 1019,5 20 57 0,0
09.12.2019 16:00:00 13,6 5,9 20 11 42 23 W 1018,9 20 60 0,0
09.12.2019 15:00:00 13,3 5,5 21 12 46 25 W 1019,1 20 60 0,0
09.12.2019 14:00:00 12,9 5,3 26 14 53 29 W 1019,1 20 60 0,0
09.12.2019 13:00:00 12,1 4,8 23 12 46 25 WNW 1020,2 20 60 -
09.12.2019 12:00:00 11,3 4,1 11 6 29 15 W 1021,3 20 60 0,0
09.12.2019 11:00:00 9,8 3,2 11 6 31 17 WNW 1021,9 20 60 0,0
09.12.2019 10:00:00 8,3 3,8 3 2 21 12 NW 1021,2 20 24 0,0
09.12.2019 09:00:00 6,9 3,6 6 3 17 9 WSW 1021,4 16 0 0,0
09.12.2019 08:00:00 7,3 5,1 9 5 23 12 NE 1021,5 14 0 0,0
09.12.2019 07:00:00 7,3 5,1 7 4 16 9 WNW 1021,0 19 0 -
09.12.2019 06:00:00 7,1 5,5 8 5 15 8 NE 1021,7 18 0 0,0
09.12.2019 05:00:00 6,3 5,0 6 3 12 6 NNE 1022,4 16 0 0,0
09.12.2019 04:00:00 5,8 4,5 8 5 16 8 NE 1022,5 14 0 0,0
09.12.2019 03:00:00 6,0 4,8 6 3 13 7 NE 1022,7 10 0 0,0
09.12.2019 02:00:00 5,5 4,3 2 1 9 5 N 1022,1 6 0 0,0
09.12.2019 01:00:00 6,5 5,0 6 3 12 6 NE 1022,3 12 0 -
09.12.2019 00:00:00 6,9 5,1 6 4 12 6 ENE 1022,1 16 0 0,0
08.12.2019 23:00:00 7,0 5,1 8 4 12 6 NE 1022,1 17 0 0,0
08.12.2019 22:00:00 7,2 5,0 6 3 11 6 NE 1021,9 20 0 0,0
08.12.2019 21:00:00 7,2 5,1 6 3 10 6 NE 1022,2 20 0 0,0
08.12.2019 20:00:00 7,2 5,0 5 3 9 5 NE 1022,3 20 0 0,0
08.12.2019 19:00:00 7,4 5,0 6 3 11 6 NNE 1021,9 20 0 -
08.12.2019 18:00:00 7,7 5,1 7 4 13 7 NE 1021,7 20 2 0,0
08.12.2019 17:00:00 8,6 5,5 7 4 14 7 NE 1021,5 20 46 0,0
08.12.2019 16:00:00 8,9 5,5 8 4 12 7 NE 1021,5 20 33 0,0
08.12.2019 15:00:00 8,0 5,0 7 4 13 7 NE 1021,8 20 0 0,0
08.12.2019 14:00:00 7,2 4,5 6 3 11 6 NE 1022,5 20 0 0,0
08.12.2019 13:00:00 6,4 4,3 5 3 13 7 ENE 1023,4 20 0 -
08.12.2019 12:00:00 5,7 3,9 5 3 9 5 ENE 1024,6 20 0 0,0
08.12.2019 11:00:00 5,0 4,1 4 2 11 6 ENE 1025,1 20 0 0,0
08.12.2019 10:00:00 4,4 3,8 6 3 11 6 NNE 1025,1 11 0 0,0
08.12.2019 09:00:00 3,8 3,2 6 3 12 6 ENE 1025,0 5 0 0,0
08.12.2019 08:00:00 3,4 2,9 5 3 9 5 NNE 1024,8 0,5 0 0,0
08.12.2019 07:00:00 3,2 2,7 3 2 6 4 W 1024,4 0,3 0 -
08.12.2019 06:00:00 3,2 2,7 2 1 8 4 NNE 1024,4 0,2 0 0,0
08.12.2019 05:00:00 3,0 2,5 4 2 7 4 W 1024,5 0,9 0 0,0
08.12.2019 04:00:00 3,2 2,7 5 3 10 5 NNE 1025,1 0,2 0 0,0
08.12.2019 03:00:00 3,0 2,3 4 2 9 5 NE 1025,3 0,3 0 0,0
08.12.2019 02:00:00 3,3 2,5 3 2 6 3 NE 1025,4 5 0 0,0
08.12.2019 01:00:00 4,1 3,0 1 1 5 3 NW 1025,6 4,7 0 -
08.12.2019 00:00:00 4,8 3,6 2 1 6 3 N 1025,6 6 0 0,0
07.12.2019 23:00:00 5,2 3,8 1 1 6 3 ENE 1025,2 6 0 0,0
07.12.2019 22:00:00 6,2 4,3 3 2 7 4 NE 1025,1 7 0 0,0
07.12.2019 21:00:00 7,0 4,8 3 1 9 5 N 1024,7 12 0 0,0
07.12.2019 20:00:00 7,3 5,1 4 2 12 6 W 1024,2 13 0 0,0
07.12.2019 19:00:00 8,1 5,5 6 3 16 9 W 1023,5 16 0 -
07.12.2019 18:00:00 9,8 5,9 6 4 14 7 W 1022,9 19 3 0,0
07.12.2019 17:00:00 12,5 7,1 2 1 8 4 NNE 1022,0 20 57 0,0
07.12.2019 16:00:00 12,7 6,7 4 2 13 7 ENE 1022,0 20 60 0,0
07.12.2019 15:00:00 12,0 6,5 6 3 11 6 ENE 1022,3 20 60 0,0
07.12.2019 14:00:00 11,3 6,4 5 3 11 6 NE 1023,2 20 60 0,0
07.12.2019 13:00:00 10,1 5,6 7 4 11 6 ENE 1024,4 20 53 -
07.12.2019 12:00:00 8,9 5,5 5 3 11 6 ENE 1025,1 20 0 0,0
07.12.2019 11:00:00 8,5 5,3 4 2 12 6 NNW 1025,3 20 1 0,0
07.12.2019 10:00:00 8,0 5,1 4 2 16 9 NW 1025,1 20 1 0,0
07.12.2019 09:00:00 7,9 5,3 9 5 17 9 NNE 1024,6 20 0 0,0
07.12.2019 08:00:00 8,2 5,5 4 2 14 8 N 1024,1 20 0 0,0
07.12.2019 07:00:00 8,6 5,8 5 3 13 7 NNE 1023,5 20 0 -
07.12.2019 06:00:00 8,9 5,9 5 3 13 7 NNE 1023,3 20 0 0,0
07.12.2019 05:00:00 8,7 6,7 5 3 10 5 NE 1023,4 18 0 0,0

tt = temperature
td = dewpoint
ff = wind speed
fx = gusts
dd = wind direction
ppp = reduced air pressure
vv = visibility
sd = sunshine duration
rr = precipitation

Next stations